984  
ASUS45 KBOU 170510  
RWRCO  
 
WEATHER ROUNDUP FOR COLORADO  
NATIONAL WEATHER SERVICE DENVER/BOULDER CO  
1100 PM MDT TUE JUL 16 2019  
 
NOTE: "FAIR" INDICATES FEW OR NO CLOUDS BELOW 12000 FEET WITH NO  
SIGNIFICANT WEATHER AND/OR S TO VISIBILITY
.  
 
COZ001>005-013-030-031-170600-   
..NORTHWEST COLORADO
 
 
 
CITY SKY/WX TMP DP RH WIND PRES REMARKS
 
CRAIG FAIR 65 48 54 CALM 30.01S  
HAYDEN FAIR 64 48 56 E6 30.06F  
MEEKER FAIR 62 43 49 NE6 30.04S  
RANGELY FAIR 80 34 19 S5 29.93R  
RABBIT EARS PA NOT AVBL  
STEAMBOAT SPGS FAIR 65 47 51 CALM 30.09S  
WALDEN FAIR 54 43 66 SE7 30.21F  

 
 
COZ006>008-011-170600-   
..WEST CENTRAL VALLEYS
 
 
 
CITY SKY/WX TMP DP RH WIND PRES REMARKS
 
GRAND JUNCTION FAIR 74 32 21 E5 29.90R  
MONTROSE FAIR 75 44 33 SE9 30.04R  
EAGLE MOCLDY 69 49 48 CALM 30.12R  
RIFLE FAIR 72 44 36 E6 29.98R  
DELTA FAIR 77 40 26 E6 29.98R  
NUCLA FAIR 79 36 21 S5 30.08R  

 
 
COZ017>023-064>068-170600-   
..SOUTHWEST COLORADO
 
 
 
CITY SKY/WX TMP DP RH WIND PRES REMARKS
 
DURANGO CLOUDY 70 49 47 E8 30.26R  
CORTEZ FAIR 81 44 27 S10 30.09R  
PAGOSA SPRINGS FAIR 61 59 92 CALM 30.37R  
TELLURIDE FAIR 64 37 36 CALM 30.38S  
WOLF CREEK PAS MOCLDY 45 43 93 W5 30.70R  

 
 
COZ009-010-012-014-032>034-037-058>063-170600-   
..CENTRAL COLORADO
 
 
 
CITY SKY/WX TMP DP RH WIND PRES REMARKS
 
ASPEN FAIR 63 44 50 SW8 30.21R  
BUENA VISTA FAIR 61 42 49 NW8 30.28R  
COPPER MTN FAIR 61 37 41 S7 30.59S  
BERTHOUD PASS FAIR 50 37 62 W10G21 30.62F  
COTTONWOOD PAS NOT AVBL  
GUNNISON FAIR 66 45 46 NW5 30.25R  
GRANBY NOT AVBL  
KREMMLING FAIR 59 43 55 SE6 30.17F  
LEADVILLE MOCLDY 59 37 44 SE12 30.41R  
SALIDA FAIR 74 40 28 S18G26 30.31R  
SUNLIGHT FAIR 55 34 44 SW9G17 30.48F  
WILKERSON PASS FAIR 55 36 47 SW13 30.56R  

 
 
COZ069>075-170600-   
..SAN LUIS VALLEY/SANGRE DE CRISTO MOUNTAINS
 
 
 
CITY SKY/WX TMP DP RH WIND PRES REMARKS
 
ALAMOSA MOCLDY 66 45 46 W12G23 30.31R  
DEL NORTE CLOUDY 66 46 49 W13 30.35R  
LA VETA PASS NOT AVBL  
SAGUACHE CLOUDY 61 52 72 CALM 30.34R  

 
 
COZ035-036-038>040-170600-   
..NORTHERN COLORADO FRONT RANGE
 
 
 
CITY SKY/WX TMP DP RH WIND PRES REMARKS
 
DENVER INTL AP FAIR 76 49 38 S15 29.99S  
AURORA PTCLDY 74 51 43 S16 30.01S  
FRONT RANGE AP FAIR 74 50 42 S14 30.01S  
ERIE MUNI ARPT FAIR 74 49 42 SW5 30.01S  
BOULDER MUN AP FAIR 73 46 38 CALM 29.97S  
CENTENNIAL FAIR 75 49 39 S14 30.04S  
BROOMFIELD FAIR 77 46 33 S9 30.00F  
FORT COLLINS FAIR 73 59 61 S3 29.95S  
LONGMONT FAIR 71 52 51 W6 29.98R  

 
 
COZ041-046-047-076>085-087-088-170600-   
..PIKES PEAK/PALMER DIVIDE AND SOUTHERN FOOTHILLS
 
 
 
CITY SKY/WX TMP DP RH WIND PRES REMARKS
 
COLO. SPRINGS MOCLDY 70 49 47 S7 30.15R  
A. F. ACADEMY FAIR 65 52 62 SE7 30.14R  
SCHRIEVER AFB NOT AVBL  
CHEYENNE MTN NOT AVBL  
ELLICOTT N/A N/A N/A N/A SE18 30.11R  
FALCON N/A N/A N/A N/A MISG N/A  
FORT CARSON FAIR 71 49 45 SW6 30.10R  
LIMON FAIR 70 52 52 S9 30.05R  
MONUMENT HILL FAIR 63 48 59 S10G17 30.18R  
CANON CITY NOT AVBL  
WALSENBURG NOT AVBL  
TRINIDAD FAIR 79 45 29 W18G32 30.10R  

 
 
COZ042>045-048>051-090-091-170600-   
..NORTHEAST COLORADO
 
 
 
CITY SKY/WX TMP DP RH WIND PRES REMARKS
 
GREELEY ARPT FAIR 73 54 51 S6 29.93F  
AKRON FAIR 74 64 71 SE15 29.95F  
BURLINGTON FAIR 79 64 60 SE13 29.94F  
WRAY FAIR 81 61 50 SE12 29.91F  
YUMA FAIR 75 32 20 SE9 29.93S  
STERLING FAIR 79 63 57 CALM 29.91R  
HOLYOKE FAIR 79 64 61 E9 29.92S  
FORT MORGAN NOT AVBL  

 
 
COZ086-089-092>099-170600-   
..SOUTHEAST COLORADO
 
 
 
CITY SKY/WX TMP DP RH WIND PRES REMARKS
 
PUEBLO FAIR 75 56 51 SW5 30.02R  
LA JUNTA FAIR 76 57 51 NE21G26 30.00R  
LAMAR FAIR 80 58 46 NW14 29.97R  
SPRINGFIELD N/A 74 52 46 N9 30.02R  

 
 
 
CLICK HERE TO GO TO PREVIOUS BULLETINS.

The Nexlab CO Page Main Text Page